STARLINK-32883, 62806

Orbit data source: Space-Track

STARLINK-32883, 62806 is a payload satellite owned by SpaceX/Seattle (US) in LEO that was launched on Fri, 24 Jan 2025 UTC via an FALCON 9 launch vehicle from the Air Force Western Test Range (AFWTR). Payload-class satellites include a variety of spacecraft equipped with specific instruments for various scientific and technological missions. These include communications satellites like Starlink; space stations such as the ISS; scientific satellites like the Hubble; Earth observation satellites from companies like Planet Labs, Umbra, and HawkEye 360; GPS; miniature CubeSats for education and research; and military/defense satellites.

Loading next visibility...
Identifier
62806, 2025-018A
Orbit
LEO
Last TLE update
11 hours ago
Origin
Manufacturer
SpaceX/Seattle
Mission
Operational Commercial Communications
Bus & Motor
STARLINK V2M, Unknown motor
Mass
730 kg wet, ~700 kg dry
Launch date (UTC)
2025-01-24 (5 months ago)
Launch vehicle
FALCON 9
Launch site
Air Force Western Test Range (AFWTR)
Object type
Payload
Rocket body
Debris
Shape & HBR
Box + 2 Pan, 29 m
Radar Cross Section
33.884 m², Large (>1 m²)

Expand to show TLE details & history

TLE from 11 hours ago
0 STARLINK-32883
1 62806U 25018A   25181.99305727  .00009237  00000-0  32364-3 0  9999
2 62806  53.1602  38.6306 0001136  94.3603 265.7528 15.30196420 25275
Epoch: 2025-06-30T23:50Z
TLE epoch observation values (Epoch: 2025-06-30T23:50:00.148Z)
Latitude
0.00003°
Longitude
121.83511°
Altitude
476.183 km
Speed
7.629 km/s
True Right ascension
02h 34m 31s
True Declination
0° 00' 00"
Sunlit
Object was in daylight at epoch
Visualization orbit readout
Latitude
-29.32549°
Longitude
95.0004°
Altitude
484.615 km
Speed
7.623 km/s
Apparent Right ascension
04h 26m 29s
Apparent Declination
-63° 46' 48"
Sunlit
Object is in daylight
Visualization observer readout
Local Sidereal Time
22:17:02
Azimuth
146.869° SSE
Elevation
-36.129°
Doppler factor
1
Orbital elements
Apogee altitude
476.261 km
Perigee altitude
474.704 km
Semi-major axis
6,853.619 km
Eccentricity
0.00011
Inclination
53.1602°
RAAN
38.6306°
Arg. of periapsis
94.3603°
True anomaly
Unknown
Mean anomaly
265.7528°
Eccentric anomaly
Unknown
Mean motion
3.82528 °/min
Orbital period
94.11 mins
BSTAR
0.00032364
Loading maneuver chart data...
Loading SW <> Apogee altitude chart data...
Loading historical data...
Loading historical data...
Loading historical data...
Loading historical data...
Loading historical data...
Loading historical data...
Loading historical data...

STARLINK-32883 Visibility forecast

Observer location: undefined°, undefined°

Span
Click to sort rows by Start time (UTC) header in descending order
Start Az.
Max El. time (UTC)
Max El. Az.
Max El.
End time (UTC)
End Az.
5 mins2025-07-01 17:16:33.605Z231.708° WSW2025-07-01 17:18:33.605Z327.702° NNW44.928°2025-07-01 17:21:33.605Z48.952° ENE
5 mins2025-07-01 23:51:33.605Z315.103° NNW2025-07-01 23:53:33.605Z25.706° NE44.382°2025-07-01 23:56:33.605Z125.65° SE
|